CAPE
1011 897 1305 1410 1170 1362 1356 1429 1544 1716 1906 1810 1777 1789 1839 1826 1760 1601 1412 1346 1395 1546 1689 1522 1465 1503 1143 1065 1205 1246 1052 908 794 891 879 998 720 653 712 762 705 464 853
866 1068 1290 1507 1508 1482 1508 1455 1667 1875 2090 2121 2005 1971 1903 1853 1717 1547 1560 1474 1540 1715 1806 1830 1688 1364 1206 971 1157 1045 998 769 736 787 820 805 710 682 643 638 699 544 808
1010 1142 1298 1503 1617 1602 1656 1610 1825 2022 2175 2188 2090 2025 1957 1884 1701 1642 1718 1617 1657 1715 1605 1573 1279 1114 1080 1071 1062 1022 921 804 653 677 643 283 353 551 583 549 674 660 671
1126 1070 1254 1518 1641 1643 1664 1750 1759 2125 2205 2230 2161 2066 1982 1886 1740 1573 1545 1682 1641 1620 1686 1326 1348 1182 1052 1068 934 862 769 636 450 283 97 187 239 508 468 398 469 477 526
1292 1139 1211 1524 1603 1720 1681 1784 1806 1926 2053 2063 2033 2089 2033 1937 1848 1851 1523 1662 1714 1726 1697 1498 1372 1208 1063 808 693 626 462 294 163 13 4 21 95 395 389 217 202 294 369
1378 1265 1218 1459 1593 1783 1745 1838 1837 1827 1777 1855 1892 1999 2045 1974 1935 1903 1655 1668 1665 1695 1717 1523 1388 1094 745 589 479 306 122 54 0 0 14 117 15 117 54 23 20 16 70
1156 1229 1217 1401 1593 1812 1847 1918 1872 1767 1655 1695 1824 1862 1891 1886 1849 1758 1592 1576 1627 1621 1605 1287 1137 788 492 342 214 75 15 0 0 0 0 1 24 39 29 22 21 16 13
923 1057 1120 1383 1541 1763 1806 1720 1596 1593 1630 1617 1712 1707 1470 1211 1082 1180 1431 1473 1350 1479 1189 1067 808 498 326 166 58 8 0 0 0 0 0 12 70 36 35 30 16 18 11
652 744 1040 1189 1453 1682 1697 1583 1234 1176 1281 1378 1088 630 445 275 546 760 1005 1309 1221 1037 981 787 531 294 174 59 8 0 0 0 0 0 0 9 45 39 22 7 9 12 6
488 516 617 1086 1352 1425 1507 1454 693 736 659 163 85 83 6 3 114 318 539 687 775 841 776 555 307 218 90 8 0 0 0 0 0 0 0 13 38 21 16 7 13 18 14
426 395 274 361 505 566 681 848 669 482 283 155 91 34 22 5 144 142 301 316 600 369 492 170 152 133 22 0 0 0 0 0 0 0 0 31 24 19 23 19 16 9 12
473 243 215 34 1 1 186 428 412 364 130 32 1 0 0 11 19 64 96 218 220 190 152 67 120 29 1 0 0 0 0 0 0 0 0 26 36 24 22 21 9 15 29
348 41 56 74 0 0 36 102 242 78 4 5 4 0 0 11 49 84 74 118 119 93 0 0 0 0 0 0 0 0 0 0 0 0 3 13 33 19 12 23 13 9 9
155 17 12 34 33 0 1 9 3 43 3 12 20 10 4 42 72 55 84 60 62 12 0 0 0 0 0 0 0 0 0 0 0 0 2 25 34 21 36 27 17 18 13
144 5 7 1 26 0 0 1 1 3 1 1 1 0 0 7 44 92 77 23 28 0 0 0 0 0 0 0 0 0 0 0 0 0 1 14 27 38 24 24 19 15 13
66 21 32 3 0 0 0 0 0 1 1 1 0 1 0 0 0 48 49 19 0 0 0 0 0 0 0 0 0 0 0 0 0 0 0 7 16 27 30 16 22 14 12
87 17 96 47 0 0 0 1 0 0 0 0 0 1 0 0 1 86 59 15 0 0 0 0 0 0 0 0 0 0 0 0 0 0 0 0 6 13 22 35 25 16 10
20 12 31 15 0 1 1 1 2 1 1 1 1 1 1 1 101 154 75 12 0 0 0 0 0 0 0 0 0 0 0 0 0 0 0 0 0 0 6 22 30 28 10
3 0 0 0 0 1 1 0 0 1 3 6 1 2 1 1 7 92 20 0 0 0 0 0 0 0 0 0 0 0 0 0 0 0 0 0 0 0 0 5 11 13 15
0 0 0 1 0 0 0 0 2 5 9 7 16 1 3 1 24 9 1 0 0 0 0 0 0 0 0 0 0 0 0 0 0 0 0 0 0 0 0 0 1 1 3
0 0 0 1 1 0 0 1 4 2 2 9 19 16 3 8 27 0 0 0 0 0 0 0 0 0 0 0 0 0 0 0 0 0 0 0 0 0 0 0 0 0 0
8 1 0 0 0 0 0 0 0 1 0 2 1 4 2 1 0 1 0 0 0 0 0 0 0 0 0 0 0 0 0 0 0 0 0 0 0 0 0 0 0 0 0
4 6 0 0 0 0 0 0 0 0 1 1 1 9 3 2 1 0 0 0 0 0 0 0 0 0 0 0 0 0 0 0 0 0 0 0 0 0 0 0 0 0 0
2 6 0 0 0 0 0 0 0 0 1 0 0 1 3 1 1 0 0 0 0 0 0 0 0 0 0 0 0 0 0 0 2 0 0 0 0 0 0 0 3 3 1
0 0 0 0 0 0 0 0 0 0 0 0 1 1 1 0 0 0 0 0 0 0 0 6 0 0 0 0 0 0 0 0 0 0 0 0 0 0 0 0 0 6 3
1 0 0 0 0 0 0 0 0 0 0 0 0 3 1 0 2 0 0 0 0 3 15 23 5 0 0 0 1 4 4 0 0 0 0 0 0 0 0 0 2 9 15
CIN
-301 -290 -157 -131 -143 -73 -81 -74 -67 -58 -39 -37 -30 -30 -21 -17 -10 0 0 0 0 0 0 0 0 0 0 0 0 0 0 0 0 0 -1 0 0 0 0 0 0 0 0
-366 -279 -189 -129 -112 -81 -61 -62 -45 -44 -28 -17 -17 -15 -13 -8 -4 0 0 0 0 0 0 0 0 0 0 0 0 0 0 -1 -3 -4 -3 0 0 0 0 0 0 0 0
-330 -270 -199 -122 -81 -64 -48 -33 -12 -16 -21 -20 -19 -14 -7 -2 0 0 0 0 0 0 0 0 0 0 0 0 0 0 0 0 -1 -1 -2 -9 -1 0 0 0 0 0 0
-329 -288 -214 -124 -69 -42 -33 -26 -4 -2 -10 -15 -19 -14 -6 0 0 -1 -3 -1 0 0 0 0 0 0 0 0 0 0 0 0 0 -17 -60 -23 -12 0 0 0 0 0 0
-292 -275 -219 -114 -61 -28 -13 -4 0 0 -3 -8 -6 -2 -1 -3 -1 0 -3 -2 0 0 0 0 0 0 0 0 -1 0 -1 -11 -42 -270 -158 -169 -47 -2 0 -13 -12 0 0
-255 -242 -207 -122 -55 -20 -8 -2 -1 -1 0 -4 -9 -9 0 -4 0 0 -1 -2 0 0 0 0 0 0 0 -2 -1 -5 -53 -126 -1 0 -181 -58 -121 -55 -103 -192 -9 -13 -84
-284 -226 -199 -132 -51 -14 -7 0 -1 -1 -5 -3 0 -3 0 0 0 0 -1 -2 -1 0 0 0 0 0 0 -11 -22 -97 -206 0 0 0 0 -24 -197 -139 -159 -1 -2 -2 -3
-322 -238 -200 -120 -56 -16 -10 -10 -13 -15 -7 -2 -1 0 -2 -5 -11 -3 -3 -3 -3 -3 -1 0 0 0 -2 -13 -88 -241 0 0 0 0 0 -43 -118 -197 0 -1 -2 -2 -1
-354 -298 -203 -130 -58 -11 -1 -11 -34 -35 -22 -5 -5 -12 -21 -11 -8 -3 -3 -5 -7 -7 0 0 -1 -10 -10 -67 -194 0 0 0 0 0 0 -19 -158 0 -1 0 0 0 0
-389 -349 -292 -130 -65 -28 -14 -3 -68 -46 -42 -84 -98 -76 -80 -57 -14 -6 -10 -4 -3 0 0 0 -11 -10 -36 -142 0 0 0 0 0 0 0 -20 -4 -1 0 0 0 -1 0
-393 -367 -369 -276 -222 -156 -86 -46 -55 -51 -78 -81 -63 -101 -142 -176 -14 -5 -7 -18 -6 -25 0 -19 -10 -32 -108 -45 0 0 0 0 0 0 0 -7 0 -1 0 0 -1 -1 0
-370 -403 -377 -390 0 0 -179 -90 -91 -64 -86 -122 -18 0 0 -225 -180 -107 -40 -17 -12 -35 -10 -46 -15 -77 -52 0 0 0 0 0 0 0 0 -4 -4 -1 0 0 0 0 -1
-430 -507 -449 -359 0 0 -217 -150 -78 -80 -12 -49 -107 0 -2 -167 -90 -30 -25 -25 -10 -36 0 0 -5 0 0 0 0 0 0 0 0 0 -6 -2 0 0 0 0 0 0 -2
-498 -473 -457 -391 -332 0 0 -233 -120 -100 0 -74 -77 -78 0 -61 -28 -35 -27 -22 -19 -79 0 0 0 0 0 0 0 0 0 0 0 0 -1 -10 -2 0 0 0 0 0 0
-513 -310 -284 0 -335 0 0 0 0 -61 0 0 -1 0 0 -100 -77 -27 -32 -39 -38 0 0 0 0 0 0 0 0 0 0 0 0 0 -2 -15 -9 -4 0 0 0 0 0
-561 -549 -440 -69 0 0 0 0 0 0 0 0 0 0 0 0 0 -54 -27 -52 0 0 0 0 0 0 0 0 0 0 0 0 0 0 0 -17 -21 -5 0 0 0 0 0
-560 -580 -385 -366 0 0 0 0 0 0 0 0 0 0 0 0 -1 -22 -25 -46 0 0 0 0 0 0 0 0 0 0 0 0 0 0 0 0 -17 -18 -8 -1 0 0 0
-656 -621 -433 -333 0 0 0 0 0 0 0 0 0 0 0 -1 -9 -1 -6 -51 0 0 0 0 0 0 0 0 0 0 0 0 0 0 0 0 0 -26 -16 -8 -1 0 0
-538 0 0 -1 0 0 0 0 0 -1 0 -3 0 0 0 -17 -13 -1 -7 0 0 0 0 0 0 0 0 0 0 0 0 0 0 0 0 0 0 0 0 -16 -10 -7 -1
0 -54 0 0 0 0 0 0 0 0 -1 -1 0 0 0 0 0 -14 0 0 0 0 0 0 0 0 0 0 0 0 0 0 0 0 0 0 0 0 0 0 -3 -3 -8
0 0 0 0 0 0 0 0 0 -1 -3 0 0 -20 0 0 0 0 0 0 0 0 0 0 0 0 0 0 0 0 0 0 0 0 0 0 0 0 0 0 0 0 0
-693 -169 0 0 0 0 -33 -13 -5 -5 0 -7 0 0 0 0 0 -1 0 0 0 0 0 0 0 0 0 0 0 0 0 0 0 0 0 0 0 0 0 0 0 0 0
-696 -663 0 0 0 0 0 0 0 0 -3 0 0 -7 0 0 0 0 0 0 0 0 0 0 0 0 0 0 0 0 0 0 0 0 0 0 0 0 0 0 0 0 0
-640 -683 0 0 0 0 0 0 0 0 0 0 0 -1 0 0 0 0 0 0 0 0 0 0 0 0 0 0 0 0 0 0 -124 0 0 0 0 0 0 0 -346 -409 -332
0 0 0 0 0 0 0 0 0 0 0 0 0 -17 0 0 0 0 0 0 0 0 -5 -242 -33 0 0 0 0 0 0 0 0 0 0 0 0 0 0 0 -64 -350 -366
-380 0 0 0 0 -1 0 0 0 0 0 0 0 0 0 0 0 0 0 0 0 -109 -156 -185 -252 -10 -42 0 -57 -230 -183 0 0 0 0 0 -9 0 0 0 -216 -338 -345
Wind_Speed
5 8 14 15 16 13 12 12 12 14 16 19 21 22 22 22 20 18 16 15 17 19 21 21 19 19 20 21 19 19 18 18 18 19 19 21 21 22 21 19 17 14 19
8 12 15 16 17 16 12 12 13 15 17 18 19 19 20 20 19 18 17 16 18 18 20 21 20 19 21 21 19 20 18 17 17 19 19 22 22 22 22 19 17 16 20
7 10 11 13 14 15 15 12 13 15 19 21 21 21 21 20 19 18 17 17 18 19 21 22 21 21 22 20 20 20 19 18 19 17 17 10 13 22 21 19 19 20 20
8 10 10 14 14 15 14 14 13 15 18 20 22 23 22 20 19 18 18 16 18 19 21 22 23 24 23 21 20 19 19 19 18 17 9 10 12 21 21 19 19 21 20
7 10 8 14 13 14 14 14 12 14 15 18 20 21 21 22 21 19 18 18 19 20 20 23 24 24 22 21 21 20 19 18 17 12 8 7 8 16 19 18 17 18 17
7 7 7 12 12 14 15 15 15 12 13 16 18 22 21 23 23 20 18 19 19 19 21 22 23 21 20 22 20 20 19 18 14 7 8 12 9 18 19 18 15 14 14
8 9 9 12 13 14 16 16 15 14 12 12 16 19 18 20 19 19 19 19 19 19 20 21 22 20 19 20 20 20 19 17 10 8 7 9 11 20 18 16 16 15 15
8 5 6 12 13 13 15 16 16 16 14 13 12 12 16 16 18 11 15 16 16 18 21 21 21 21 20 19 19 19 19 17 11 10 9 9 16 18 17 16 16 17 15
6 6 5 9 10 11 10 13 14 14 15 12 9 9 12 7 14 14 13 15 13 19 21 22 20 20 20 18 18 17 15 15 10 8 11 7 18 18 17 15 15 15 15
5 6 6 9 7 7 7 9 5 6 8 21 20 21 21 16 6 8 10 13 17 19 20 22 21 20 18 17 16 16 14 14 9 9 6 7 17 17 16 16 17 16 17
3 5 6 5 5 4 4 6 10 15 20 22 20 23 21 14 10 9 11 12 21 20 19 20 19 19 18 16 15 14 12 4 7 5 4 14 16 17 16 17 17 17 18
7 6 6 5 5 5 3 4 7 12 10 11 12 14 11 16 15 14 13 15 18 20 19 20 20 18 13 7 7 10 5 5 4 5 4 15 17 18 17 17 17 17 17
7 4 7 7 6 7 5 4 4 5 6 7 10 10 7 6 8 9 6 5 8 15 8 12 13 8 9 7 4 4 6 5 3 3 7 15 15 17 16 16 16 16 17
8 7 8 7 7 7 4 3 4 7 7 6 9 11 8 7 9 8 5 7 7 7 9 7 7 7 8 8 8 8 6 5 3 3 9 10 13 16 17 17 16 16 17
8 8 12 9 7 6 6 4 4 6 7 8 8 11 8 9 9 7 7 7 8 6 8 6 7 8 6 8 6 9 8 6 5 3 4 12 15 16 17 17 17 17 17
9 10 11 10 8 7 6 7 4 4 5 6 7 9 8 7 7 7 7 8 7 8 7 8 8 8 8 8 8 8 8 6 5 4 3 6 12 12 14 16 16 17 17
9 10 12 9 9 8 7 7 5 3 4 4 5 8 10 9 9 8 8 9 8 8 10 7 6 6 7 6 8 7 7 6 5 5 3 3 5 11 11 13 14 15 15
9 12 13 11 9 8 7 6 5 5 6 5 5 6 11 10 9 10 9 10 9 9 9 8 8 7 6 7 6 5 5 6 6 6 4 3 4 3 8 10 12 14 15
11 12 14 10 9 8 7 5 4 5 5 5 7 7 11 13 13 11 10 9 10 10 9 8 5 9 7 7 7 5 5 5 7 6 5 5 5 5 3 9 11 11 12
9 9 12 9 9 7 7 5 4 3 4 4 6 9 13 10 13 7 9 10 10 10 8 8 9 3 5 7 7 5 3 3 3 5 6 4 4 4 4 5 5 5 10
8 10 13 12 10 9 7 5 4 3 2 3 5 13 13 13 13 12 9 11 10 11 12 11 7 8 3 5 7 4 4 2 2 2 3 4 6 6 5 4 3 3 4
13 13 13 12 12 9 5 3 3 3 2 1 2 6 9 12 12 13 13 11 11 10 11 11 12 5 3 7 4 4 3 1 1 4 3 4 6 5 7 7 7 7 6
16 17 14 14 12 7 8 5 3 3 3 1 4 5 7 9 10 10 10 9 9 9 10 12 11 8 7 6 8 5 4 4 3 2 5 4 5 5 6 7 8 8 8
16 15 13 12 13 11 8 7 6 4 4 2 2 3 6 9 9 10 11 9 8 7 9 10 8 8 7 10 1 1 2 5 4 2 2 5 5 7 8 7 9 10 10
15 14 11 11 12 10 10 9 5 5 3 3 4 5 4 6 10 11 8 10 9 7 8 10 7 5 4 7 4 3 1 1 2 4 3 3 4 6 8 9 8 7 10
13 12 12 12 11 10 9 11 7 8 6 5 4 4 4 3 5 13 12 10 7 8 8 7 5 6 5 5 7 4 4 4 4 3 2 3 6 4 8 7 8 9 8
Wind_Direction
212 160 161 160 160 159 150 140 133 125 129 138 143 144 143 142 143 143 142 141 138 137 137 132 126 128 127 124 119 113 114 116 118 116 113 111 110 107 100 94 94 97 99
135 159 162 164 160 159 155 143 139 132 131 135 139 142 142 142 142 143 142 141 136 134 135 135 132 128 126 122 115 114 117 115 113 111 113 111 110 108 104 97 96 100 99
139 157 161 166 163 159 155 151 146 142 139 140 142 144 144 145 146 147 144 141 137 135 136 137 137 132 130 123 117 116 113 111 107 108 99 102 110 109 102 100 101 100 99
150 166 166 168 167 163 158 156 155 153 149 148 149 150 149 147 149 152 144 140 139 141 140 141 138 135 132 123 121 116 111 108 104 99 101 106 109 113 106 105 99 98 96
151 170 169 168 166 159 156 155 160 159 156 152 151 151 155 153 153 150 147 146 145 146 146 142 138 135 129 125 121 118 114 108 101 94 92 93 102 108 105 100 99 101 102
156 165 165 167 169 161 156 159 162 169 163 162 160 155 164 158 157 152 151 148 150 149 149 144 137 133 129 126 123 118 110 105 96 89 99 106 101 104 93 87 87 85 80
161 180 179 170 172 170 163 164 163 165 172 169 166 167 172 159 157 153 153 153 154 155 147 140 135 130 127 125 124 118 112 106 102 97 98 104 102 99 105 111 106 103 100
155 174 173 180 178 177 174 170 172 172 170 172 170 169 162 156 136 164 155 156 163 154 138 137 133 131 131 129 124 121 117 114 107 106 104 94 111 116 121 119 120 115 116
158 168 165 187 187 180 184 182 184 183 174 164 151 154 127 148 133 205 186 159 154 137 141 135 134 134 134 129 124 117 118 120 116 117 108 117 123 129 128 131 127 123 126
161 169 164 187 183 181 191 181 167 163 161 121 127 123 125 96 330 189 190 163 145 146 145 133 138 139 132 127 124 125 123 114 115 109 112 130 133 139 141 141 130 132 125
160 170 156 163 152 162 176 199 186 146 144 146 145 146 139 144 177 213 218 174 151 146 141 134 138 135 131 125 122 121 112 106 111 105 111 139 142 141 139 139 139 138 133
193 181 155 156 153 156 158 169 152 151 151 152 156 166 158 167 172 184 223 186 169 143 139 135 133 130 123 125 126 111 110 96 110 104 123 136 148 146 148 146 144 141 131
185 171 171 164 151 165 162 164 136 143 148 159 166 176 188 172 166 175 205 177 180 137 130 129 130 136 136 132 108 113 116 111 100 107 151 148 155 151 150 149 149 144 138
175 174 171 162 161 158 162 156 141 148 159 172 178 176 175 171 178 176 168 166 160 146 134 130 137 134 139 130 130 126 122 117 128 127 155 154 144 149 157 158 150 145 145
183 162 183 160 165 158 162 151 153 154 165 170 174 176 178 176 174 169 164 148 148 147 137 122 127 134 127 130 137 135 137 131 131 134 151 146 150 163 163 162 158 156 151
183 170 174 171 166 156 166 157 169 158 152 159 176 177 181 176 178 168 155 152 141 152 141 132 143 145 143 146 145 147 143 141 135 138 140 158 161 171 167 168 166 163 158
183 159 173 166 156 170 170 154 161 175 158 166 178 179 183 183 186 177 162 152 151 152 138 120 135 140 139 151 147 148 146 144 134 132 147 138 160 166 166 169 171 172 164
155 160 177 178 160 164 157 155 154 169 185 184 197 198 195 199 189 177 169 158 154 151 148 146 150 141 146 138 144 156 139 145 144 148 148 146 146 161 166 170 175 178 173
164 156 174 173 162 157 144 140 152 167 184 181 183 195 201 200 202 176 165 147 156 147 156 152 146 147 148 146 150 144 136 159 155 154 159 165 164 161 164 178 179 185 185
151 153 168 165 151 144 151 146 141 166 193 197 204 197 195 197 192 184 140 140 152 145 146 154 154 100 142 149 140 107 90 124 140 160 171 170 174 171 172 178 181 189 196
147 154 168 166 158 164 157 145 154 165 170 212 229 211 186 196 193 155 139 148 161 149 161 158 144 138 86 129 111 71 44 52 102 155 164 169 182 184 178 189 184 183 210
167 175 174 170 170 172 167 125 143 152 149 141 99 118 127 126 138 140 144 150 163 143 152 162 160 135 112 165 138 115 133 73 204 203 196 190 203 195 199 196 189 195 202
177 185 178 171 170 158 131 120 106 105 97 118 125 133 140 133 129 117 130 150 154 156 160 171 165 158 152 198 174 141 138 189 147 167 207 204 187 205 215 202 211 208 204
180 178 172 163 171 175 155 162 158 169 143 159 105 124 134 141 142 141 141 148 163 150 159 178 181 177 151 176 164 303 86 141 168 172 221 204 206 219 219 221 214 213 211
166 170 156 157 171 167 175 181 160 144 129 115 109 116 126 143 156 148 153 157 163 152 164 170 166 161 143 170 158 140 109 62 93 134 176 189 200 209 221 223 222 221 215
169 167 160 168 177 172 176 184 165 159 145 133 131 150 145 143 162 172 164 155 150 141 158 162 156 166 165 148 192 173 172 168 179 143 136 158 204 209 220 223 221 223 219